�������l�o���
Date,Time,MP-1(��Sv/h),MP-2(��Sv/h),MP-3(��Sv/h),MP-4(��Sv/h),MP-5(��Sv/h),MP-6(��Sv/h),MP-7(��Sv/h),MP-8(��Sv/h),����,����(m/s),���J
2016/06/09,00:00,-,2.603,2.689,2.434,2.575,0.659,1.247,1.073,��,7.6,��
2016/06/09,00:10,-,2.600,2.692,2.431,2.579,0.661,1.248,1.071,��,7.8,��
2016/06/09,00:20,-,2.600,2.689,2.432,2.575,0.659,1.244,1.069,��,8.7,��
2016/06/09,00:30,-,2.600,2.687,2.432,2.580,0.661,1.247,1.072,��,7.1,��
2016/06/09,00:40,-,2.603,2.690,2.431,2.576,0.659,1.246,1.072,��,7.7,��
2016/06/09,00:50,-,2.600,2.687,2.432,2.579,0.658,1.247,1.071,��,8.2,��
2016/06/09,01:00,-,2.598,2.692,2.430,2.576,0.661,1.246,1.073,��,8.3,��
2016/06/09,01:10,-,2.602,2.688,2.430,2.571,0.660,1.246,1.072,��,8.4,��
2016/06/09,01:20,-,2.603,2.687,2.430,2.577,0.661,1.246,1.073,��,7.8,��
2016/06/09,01:30,-,2.602,2.687,2.433,2.575,0.659,1.249,1.072,��,8.3,��
2016/06/09,01:40,-,2.597,2.691,2.429,2.574,0.659,1.246,1.070,��,7.4,��
2016/06/09,01:50,-,2.595,2.687,2.435,2.575,0.659,1.246,1.070,��,7.2,��
2016/06/09,02:00,-,2.602,2.689,2.429,2.576,0.663,1.249,1.073,��,6.9,��
2016/06/09,02:10,-,2.598,2.692,2.432,2.578,0.658,1.245,1.072,��,5.8,��
2016/06/09,02:20,-,2.598,2.683,2.429,2.578,0.660,1.244,1.071,��,6.8,��
2016/06/09,02:30,-,2.598,2.691,2.430,2.574,0.660,1.246,1.072,��,6.8,��
2016/06/09,02:40,-,2.597,2.686,2.428,2.575,0.660,1.245,1.071,��쐼,5.6,��
2016/06/09,02:50,-,2.597,2.685,2.429,2.574,0.660,1.247,1.073,��,5.0,��
2016/06/09,03:00,-,2.593,2.688,2.430,2.573,0.661,1.247,1.071,��,5.7,��
2016/06/09,03:10,-,2.595,2.685,2.431,2.574,0.659,1.245,1.072,��,6.4,��
2016/06/09,03:20,-,2.600,2.685,2.428,2.572,0.658,1.248,1.071,��,5.7,��
2016/06/09,03:30,-,2.597,2.684,2.430,2.572,0.660,1.247,1.071,��,6.3,��
2016/06/09,03:40,-,2.597,2.682,2.430,2.571,0.659,1.247,1.072,��,6.9,��
2016/06/09,03:50,-,2.597,2.687,2.428,2.575,0.660,1.246,1.074,��,7.0,��
2016/06/09,04:00,-,2.595,2.681,2.427,2.575,0.658,1.245,1.072,��,5.4,��
2016/06/09,04:10,-,2.597,2.680,2.427,2.574,0.660,1.244,1.072,��쐼,4.0,��
2016/06/09,04:20,-,2.595,2.685,2.426,2.575,0.661,1.246,1.070,��쐼,4.3,��
2016/06/09,04:30,-,2.597,2.685,2.428,2.570,0.659,1.244,1.069,��쐼,3.6,��
2016/06/09,04:40,-,2.595,2.687,2.427,2.575,0.660,1.245,1.071,��,4.6,��
2016/06/09,04:50,-,2.597,2.683,2.424,2.576,0.659,1.245,1.070,��,6.9,��
2016/06/09,05:00,-,2.597,2.681,2.427,2.577,0.661,1.245,1.071,��,6.9,��
2016/06/09,05:10,-,2.592,2.686,2.424,2.571,0.658,1.247,1.069,��,7.5,��
2016/06/09,05:20,-,2.595,2.685,2.426,2.570,0.658,1.244,1.072,��,6.8,��
2016/06/09,05:30,-,2.593,2.684,2.428,2.576,0.658,1.245,1.071,��,6.4,��
2016/06/09,05:40,-,2.595,2.684,2.429,2.573,0.657,1.248,1.071,��쐼,5.3,��
2016/06/09,05:50,-,2.593,2.682,2.427,2.572,0.659,1.245,1.072,��,4.4,��
2016/06/09,06:00,-,2.593,2.683,2.427,2.579,0.658,1.245,1.071,��,3.4,��
2016/06/09,06:10,-,2.597,2.684,2.431,2.574,0.658,1.242,1.071,��,5.1,��
2016/06/09,06:20,-,2.598,2.687,2.425,2.571,0.657,1.245,1.070,��,5.4,��
2016/06/09,06:30,-,2.598,2.684,2.429,2.573,0.659,1.246,1.071,��,4.6,��
2016/06/09,06:40,-,2.600,2.686,2.427,2.572,0.656,1.242,1.071,��,3.9,��
2016/06/09,06:50,-,2.595,2.684,2.430,2.571,0.657,1.243,1.074,��,6.2,��
2016/06/09,07:00,-,2.593,2.686,2.429,2.573,0.658,1.243,1.072,��,7.1,��
2016/06/09,07:10,-,2.597,2.684,2.428,2.574,0.655,1.244,1.070,��쓌,9.0,��
2016/06/09,07:20,-,2.595,2.687,2.430,2.574,0.659,1.245,1.070,��,8.9,��
2016/06/09,07:30,-,2.600,2.684,2.428,2.570,0.657,1.242,1.069,��쓌,8.5,��
2016/06/09,07:40,-,2.597,2.684,2.428,2.569,0.657,1.244,1.070,��쓌,8.8,��
2016/06/09,07:50,-,2.598,2.682,2.430,2.572,0.657,1.241,1.067,��쓌,8.9,��
2016/06/09,08:00,-,2.598,2.684,2.428,2.570,0.658,1.241,1.069,��쓌,9.9,��
2016/06/09,08:10,-,2.598,2.684,2.430,2.568,0.657,1.245,1.067,��,9.6,��
2016/06/09,08:20,-,2.600,2.681,2.432,2.570,0.657,1.243,1.067,��,9.6,��
2016/06/09,08:30,-,2.600,2.684,2.431,2.572,0.657,1.243,1.069,��쓌,8.6,��
2016/06/09,08:40,-,2.597,2.681,2.427,2.566,0.657,1.243,1.067,��,8.4,��
2016/06/09,08:50,-,2.602,2.683,2.427,2.570,0.659,1.239,1.069,��,7.8,��
2016/06/09,09:00,-,2.605,2.683,2.432,2.569,0.657,1.242,1.068,��,8.0,��
2016/06/09,09:10,-,2.602,2.683,2.431,2.567,0.659,1.242,1.067,��,7.7,��
2016/06/09,09:20,-,2.598,2.682,2.432,2.567,0.657,1.243,1.068,��,6.9,��
2016/06/09,09:30,-,2.600,2.682,2.432,2.551,0.656,1.243,1.068,��,7.2,��
2016/06/09,09:40,-,2.600,2.680,2.430,2.543,0.657,1.244,1.064,��,7.1,��
2016/06/09,09:50,-,2.605,2.682,2.428,2.544,0.659,1.243,1.067,��쓌,8.8,��
2016/06/09,10:00,-,2.603,2.684,2.430,2.548,0.658,1.246,1.067,��쓌,9.4,��
2016/06/09,10:10,-,2.603,2.663,2.429,2.543,0.658,1.246,1.066,��,8.8,��
2016/06/09,10:20,-,2.603,2.655,2.432,2.547,0.660,1.242,1.067,��쓌,9.1,��
2016/06/09,10:30,-,2.603,-,2.428,2.546,0.658,1.244,1.066,��,7.9,��
2016/06/09,10:40,-,2.602,-,2.430,2.552,0.659,1.243,1.067,��쓌,6.5,��
2016/06/09,10:50,-,2.598,-,2.430,2.541,0.660,1.244,1.068,��쓌,8.4,��
2016/06/09,11:00,-,2.607,-,2.430,2.540,0.658,1.244,1.068,��,9.1,��
2016/06/09,11:10,-,2.600,-,2.431,2.543,0.661,1.246,1.068,��,8.9,��
2016/06/09,11:20,-,2.603,-,2.431,2.541,0.661,1.244,1.069,��,8.2,��
2016/06/09,11:30,-,2.605,2.677,2.431,2.539,0.658,1.245,1.069,��,7.2,��
2016/06/09,11:40,-,2.607,2.689,2.428,2.543,0.659,1.244,1.067,��쓌,7.8,��
2016/06/09,11:50,-,2.608,2.690,2.432,2.547,0.657,1.245,1.067,��,6.8,��
2016/06/09,12:00,-,2.605,2.689,2.429,2.543,0.659,1.244,1.068,��쓌,6.8,��
2016/06/09,12:10,-,2.605,2.689,2.430,2.542,0.659,1.243,1.065,��쓌,6.3,�L
2016/06/09,12:20,-,2.605,2.686,2.426,2.534,0.658,1.241,1.068,��쓌,5.3,�L
2016/06/09,12:30,-,2.595,2.688,2.426,2.530,0.658,1.242,1.068,��쓌,4.9,�L
2016/06/09,12:40,-,2.598,2.683,2.428,2.531,0.657,1.241,1.067,��쓌,4.1,�L
2016/06/09,12:50,-,2.582,2.649,2.407,2.481,0.652,1.227,1.057,���쓌,4.1,�L
2016/06/09,13:00,-,2.537,2.605,2.378,2.441,0.647,1.218,1.051,��쓌,4.6,�L
2016/06/09,13:10,-,2.510,2.580,2.354,2.410,0.644,1.215,1.049,��,3.3,�L
2016/06/09,13:20,-,2.488,2.561,2.335,2.380,0.640,1.210,1.048,-,CALM,�L
2016/06/09,13:30,-,2.465,2.546,2.322,2.367,0.636,1.208,1.045,��쓌,6.4,�L
2016/06/09,13:40,-,2.455,2.544,2.316,2.360,0.635,1.207,1.046,��쓌,6.8,�L
2016/06/09,13:50,-,2.452,2.544,2.311,2.361,0.637,1.210,1.045,��,6.5,�L
2016/06/09,14:00,-,2.452,2.542,2.312,2.359,0.637,1.210,1.044,��쓌,7.2,�L
2016/06/09,14:10,-,2.457,2.536,2.310,2.357,0.637,1.206,1.043,��쓌,7.2,�L
2016/06/09,14:20,-,2.457,2.534,2.308,2.351,0.639,1.209,1.043,��쓌,6.9,�L
2016/06/09,14:30,-,2.455,2.533,2.307,2.346,0.638,1.208,1.042,��쓌,6.8,�L
2016/06/09,14:40,-,2.450,2.529,2.306,2.351,0.639,1.207,1.044,��,5.8,�L
2016/06/09,14:50,-,2.448,2.525,2.300,2.344,0.640,1.206,1.044,��쓌,6.3,�L
2016/06/09,15:00,-,2.445,2.528,2.296,2.341,0.639,1.206,1.041,��쓌,7.2,�L
2016/06/09,15:10,-,2.432,2.498,2.273,2.299,0.629,1.196,1.036,��,6.1,�L
2016/06/09,15:20,-,2.422,2.503,2.277,2.313,0.631,1.197,1.036,��,7.5,�L
2016/06/09,15:30,-,2.432,2.510,2.281,2.319,0.633,1.197,1.038,��,5.2,�L
2016/06/09,15:40,-,2.437,2.506,2.284,2.318,0.637,1.200,1.038,��,3.6,�L
2016/06/09,15:50,-,2.437,2.515,2.285,2.326,0.638,1.201,1.038,��쐼,3.5,�L
2016/06/09,16:00,-,2.435,2.500,2.278,2.318,0.636,1.201,1.037,��,4.4,�L
2016/06/09,16:10,-,2.417,2.500,2.273,2.328,0.637,1.200,1.039,��,2.9,�L
2016/06/09,16:20,-,2.425,2.509,2.279,2.331,0.636,1.198,1.037,��쐼,2.0,��
2016/06/09,16:30,-,2.430,2.510,2.281,2.333,0.638,1.198,1.039,��쐼,2.2,��
2016/06/09,16:40,-,2.428,2.511,2.284,2.338,0.637,1.200,1.038,��,2.0,��
2016/06/09,16:50,-,2.437,2.514,2.285,2.341,0.637,1.201,1.041,��쓌,1.1,��
2016/06/09,17:00,-,2.440,2.516,2.285,2.339,0.637,1.202,1.041,��쓌,1.5,��
2016/06/09,17:10,-,2.443,2.515,2.285,2.341,0.637,1.201,1.041,�쓌,1.7,��
2016/06/09,17:20,-,2.442,2.516,2.282,2.347,0.637,1.203,1.041,�쓌,1.7,��
2016/06/09,17:30,-,2.442,2.514,2.287,2.342,0.634,1.203,1.044,��쓌,1.7,��
2016/06/09,17:40,-,2.445,2.515,2.286,2.344,0.634,1.203,1.041,��쓌,0.9,��
2016/06/09,17:50,-,2.447,2.516,2.288,2.345,0.636,1.203,1.039,��,1.9,��
2016/06/09,18:00,-,2.443,2.517,2.288,2.345,0.637,1.202,1.041,��쐼,1.7,��
2016/06/09,18:10,-,2.445,2.517,2.287,2.347,0.637,1.204,1.046,�쐼,2.2,��
2016/06/09,18:20,-,2.448,2.517,2.287,2.349,0.637,1.202,1.041,���쐼,1.9,��
2016/06/09,18:30,-,2.445,2.519,2.288,2.350,0.637,1.202,1.040,�쐼,2.0,��
2016/06/09,18:40,-,2.447,2.521,2.287,2.349,0.638,1.202,1.043,��쐼,2.0,��
2016/06/09,18:50,-,2.450,2.521,2.290,2.353,0.639,1.203,1.041,��쐼,1.4,��
2016/06/09,19:00,-,2.448,2.522,2.287,2.353,0.641,1.201,1.041,��쐼,2.9,��
2016/06/09,19:10,-,2.445,2.520,2.288,2.350,0.639,1.203,1.043,�쐼,1.7,��
2016/06/09,19:20,-,2.448,2.523,2.292,2.355,0.642,1.202,1.042,�쐼,1.4,��
2016/06/09,19:30,-,2.447,2.520,2.287,2.348,0.642,1.205,1.044,�쐼,1.5,��
2016/06/09,19:40,-,2.445,2.520,2.292,2.355,0.642,1.206,1.046,�쐼,1.4,��
2016/06/09,19:50,-,2.445,2.521,2.289,2.354,0.641,1.204,1.044,���쐼,0.9,��
2016/06/09,20:00,-,2.447,2.521,2.287,2.354,0.641,1.206,1.043,���k��,1.4,��
2016/06/09,20:10,-,2.450,2.523,2.290,2.356,0.641,1.206,1.045,�k��,1.9,��
2016/06/09,20:20,-,2.448,2.521,2.293,2.356,0.641,1.204,1.045,�k��,2.5,��
2016/06/09,20:30,-,2.450,2.523,2.293,2.358,0.642,1.206,1.046,�k�k��,3.8,��
2016/06/09,20:40,-,2.452,2.525,2.291,2.358,0.641,1.205,1.043,�k�k��,4.2,��
2016/06/09,20:50,-,2.448,2.523,2.290,2.356,0.639,1.205,1.045,�k�k��,2.9,��
2016/06/09,21:00,-,2.447,2.526,2.289,2.356,0.641,1.205,1.044,�k,3.4,��
2016/06/09,21:10,-,2.452,2.521,2.291,2.354,0.640,1.204,1.046,�k,5.3,��
2016/06/09,21:20,-,2.448,2.519,2.291,2.355,0.639,1.207,1.046,�k,6.8,�L
2016/06/09,21:30,-,2.440,2.519,2.289,2.349,0.642,1.205,1.045,�k,5.9,��
2016/06/09,21:40,-,2.440,2.514,2.288,2.350,0.641,1.203,1.046,�k�k��,4.5,��
2016/06/09,21:50,-,2.438,2.513,2.290,2.352,0.638,1.205,1.046,�k�k��,4.5,��
2016/06/09,22:00,-,2.443,2.515,2.286,2.352,0.641,1.205,1.047,�k�k��,5.5,��
2016/06/09,22:10,-,2.443,2.516,2.289,2.348,0.643,1.205,1.045,�k�k��,5.9,��
2016/06/09,22:20,-,2.442,2.515,2.286,2.349,0.642,1.205,1.045,�k�k��,6.0,��
2016/06/09,22:30,-,2.438,2.515,2.288,2.348,0.641,1.203,1.043,�k�k��,5.9,��
2016/06/09,22:40,-,2.443,2.512,2.289,2.351,0.642,1.205,1.045,�k�k��,4.0,��
2016/06/09,22:50,-,2.440,2.514,2.288,2.349,0.641,1.206,1.045,�k,2.3,��
2016/06/09,23:00,-,2.437,2.510,2.285,2.350,0.641,1.205,1.043,�k,2.0,��
2016/06/09,23:10,-,2.438,2.510,2.286,2.346,0.642,1.204,1.046,�k,3.1,��
2016/06/09,23:20,-,2.438,2.509,2.289,2.347,0.643,1.203,1.044,�k�k��,3.1,��
2016/06/09,23:30,-,2.435,2.510,2.286,2.346,0.643,1.204,1.045,�k�k��,3.2,�L
2016/06/09,23:40,-,2.437,2.507,2.283,2.344,0.641,1.202,1.043,�k�k��,2.8,��
2016/06/09,23:50,-,2.442,2.506,2.285,2.344,0.642,1.202,1.042,���k��,1.1,��
